Terminal Aerodrome Forecast
Issued by NWS

Home | Current Version | Previous Version | Text Only | Print | Product List | Glossary On
Versions: 1 2 3 4 5 6 7 8 9 10 11 12 13 14 15 16 17
000
FTUS43 KDVN 310500
TAFCID
TAF
KCID 310535Z 3106/0106 34012G20KT P6SM OVC035
     FM310700 34020G30KT P6SM SCT050
     FM312100 36010KT P6SM SKC=

USA.gov is the U.S. government's official web portal to all federal, state and local government web resources and services.